Regional Weather Roundup
Issued by NWS State College, PA

Home | Current Version | Previous Version | Graphics & Text | Print | Product List | Glossary On
Versions: 1 2 3 4 5 6 7 8 9 10 11 12 13 14 15 16 17 18 19 20 21 22 23 24 25 26 27 28 29 30 31 32 33 34 35 36 37 38 39 40 41 42 43 44 45 46 47 48 49 50
000
ASUS41 KCTP 260510
RWRCTP

REGIONAL WEATHER ROUNDUP
NATIONAL WEATHER SERVICE STATE COLLEGE PA
1200 AM EST FRI DEC 26 2014

Note: "fair" indicates few or no clouds below 12,000 feet with no
significant weather and/or obstructions to visibility.

* = STATION THAT DOES NOT REPORT PRECIPITATION /E.G. RAIN...SNOW...ETC/
    THUNDER OR FOG.

PAZ002>004-007>009-013>016-020>023-029>032-260600-
WESTERN PENNSYLVANIA

CITY           SKY/WX    TMP DP  RH WIND       PRES   REMARKS
ERIE           CLOUDY    39  28  64 SW7       30.17R
MEADVILLE      CLOUDY    36  27  69 SW8       30.14S
FRANKLIN*      CLOUDY    36  25  64 SW8       30.18R
NEW CASTLE       N/A     37  29  73 SW7       30.20S
BEAVER COUNTY  NOT AVBL
BUTLER*        CLOUDY    37  27  65 SW6       30.21S
PITTSBURGH INT CLOUDY    38  28  67 SW9       30.20F
PITTSBURGH     CLOUDY    37  27  67 SW7       30.20F
INDIANA*       CLOUDY    37  30  75 W10       30.23S
LATROBE        CLOUDY    37  32  81 SW9       30.23F
WASHINGTON CO* NOT AVBL
$$

PAZ004>006-010>012-017>019-024>028-033>037-041-042-045-046-049>053-260600-
CENTRAL PENNSYLVANIA

CITY           SKY/WX    TMP DP  RH WIND       PRES   REMARKS
BRADFORD       CLOUDY    33  25  72 W9        30.11F
DUBOIS         CLOUDY    34  27  75 W10       30.14F
CLEARFIELD     CLOUDY    36  26  67 W7        30.16F
JOHNSTOWN      CLOUDY    33  26  75 W15       30.16R
ALTOONA        CLOUDY    37  28  70 SW9       30.19S
STATE COLLEGE  CLOUDY    37  27  67 W9        30.18S
WILLIAMSPORT   CLOUDY    40  27  59 W7        30.16R
SELINSGROVE    CLEAR     40  27  59 VRB3      30.17F
FT INDIANTOWN  CLEAR     40  28  61 VRB6      30.17F
CAPITAL CITY   CLEAR     38  27  64 W5        30.19F
HARRISBURG     CLEAR     37  28  70 NW5       30.19F
YORK           CLEAR     34  27  75 CALM      30.20S
$$

PAZ038>040-043-044-047-048-054-055-060>062-067>071-260600-
EASTERN PENNSYLVANIA

CITY           SKY/WX    TMP DP  RH WIND       PRES   REMARKS
SCRANTON       PTCLDY    39  28  64 SW5       30.13R
MOUNT POCONO   CLEAR     35  26  69 NW14G22   30.06R
ALLENTOWN      CLEAR     37  27  67 SW5       30.16R
QUAKERTOWN*    NOT AVBL
READING        CLEAR     38  28  67 W5        30.17R
LANCASTER      CLEAR     35  28  75 SW3       30.18F
COATESVILLE    CLEAR     39  32  75 W3        30.19S
POTTSTOWN      CLEAR     37  28  70 CALM      30.19R
BLUE BELL      CLEAR     39  32  75 CALM      30.18R
DOYLESTOWN     CLEAR     38  29  70 SW7       30.16R
WILLOW GROVE   NOT AVBL
NORTH PHILA    CLEAR     41  27  57 W8        30.20R
PHILADELPHIA   CLEAR     40  31  70 W9        30.21R
$$


USA.gov is the U.S. government's official web portal to all federal, state and local government web resources and services.